EJU53TK EGMC-LEPA

Flight info

Callsign EJU53TK
Flight time 2h 2m
Altitude 35000
Route DET M604 LYD UM189 WAFFU DCT SITET UN859 SOPIL DCT BALAN DCT EVPOK DCT NARAK DCT GAI DCT LOMRA DCT ROCAN DCT IBRAP DCT LUKEV DCT LORES
Aircraft A320/M-SDE2E3FGHIJ1RWXYZ/LB1

Departure

Time 2026-05-05 14:42
Airport London Southend Airport (EGMC)

Arrival

Time 2026-05-05 16:44
Airport Palma de Mallorca Airport (LEPA)
Time Latitude Longitude Altitude Speed Heading
2026-05-05 14:11 51.56927 0.70272 50 ft 0 kts 93°
2026-05-05 14:32 51.56928 0.70267 54 ft 3 kts 92°
2026-05-05 14:32 51.56926 0.70225 51 ft 4 kts 75°
2026-05-05 14:32 51.56916 0.70184 50 ft 4 kts 58°
2026-05-05 14:32 51.56901 0.70150 50 ft 3 kts 53°
2026-05-05 14:33 51.56900 0.70146 49 ft 0 kts 54°
2026-05-05 14:35 51.56900 0.70147 49 ft 1 kts 54°
2026-05-05 14:35 51.56929 0.70187 49 ft 11 kts 17°
2026-05-05 14:36 51.56996 0.70128 54 ft 11 kts 324°
2026-05-05 14:36 51.57052 0.70064 54 ft 9 kts 324°
2026-05-05 14:36 51.57100 0.70008 54 ft 8 kts 324°
2026-05-05 14:36 51.57150 0.69951 54 ft 12 kts 324°
2026-05-05 14:37 51.57236 0.69853 51 ft 8 kts 324°
2026-05-05 14:37 51.57253 0.69820 55 ft 7 kts 291°
2026-05-05 14:37 51.57213 0.69709 54 ft 13 kts 234°
2026-05-05 14:37 51.57159 0.69588 51 ft 13 kts 234°
2026-05-05 14:38 51.57103 0.69464 51 ft 16 kts 234°
2026-05-05 14:38 51.57030 0.69301 51 ft 17 kts 234°
2026-05-05 14:38 51.56965 0.69157 55 ft 15 kts 234°
2026-05-05 14:38 51.56908 0.69029 53 ft 13 kts 234°
2026-05-05 14:39 51.56857 0.68916 53 ft 12 kts 234°
2026-05-05 14:39 51.56811 0.68815 52 ft 11 kts 234°
2026-05-05 14:39 51.56765 0.68714 51 ft 11 kts 234°
2026-05-05 14:39 51.56693 0.68554 52 ft 25 kts 234°
2026-05-05 14:40 51.56593 0.68333 56 ft 20 kts 234°
2026-05-05 14:40 51.56519 0.68230 52 ft 9 kts 212°
2026-05-05 14:40 51.56533 0.68210 54 ft 3 kts 18°
2026-05-05 14:40 51.56549 0.68235 53 ft 4 kts 51°
2026-05-05 14:41 51.56550 0.68238 53 ft 0 kts 51°
2026-05-05 14:41 51.56566 0.68272 53 ft 18 kts 51°
2026-05-05 14:41 51.56808 0.68810 49 ft 98 kts 54°
2026-05-05 14:41 51.57329 0.69972 180 ft 145 kts 57°
2026-05-05 14:42 51.57929 0.71284 974 ft 147 kts 55°
2026-05-05 14:42 51.58567 0.72614 1695 ft 152 kts 52°
2026-05-05 14:42 51.59134 0.74106 2111 ft 169 kts 79°
2026-05-05 14:42 51.58843 0.76025 2386 ft 197 kts 127°
2026-05-05 14:43 51.57588 0.77181 2662 ft 228 kts 171°
2026-05-05 14:43 51.55928 0.76868 3055 ft 256 kts 196°
2026-05-05 14:43 51.54203 0.75788 3613 ft 274 kts 204°
2026-05-05 14:43 51.52465 0.74458 4454 ft 279 kts 205°
2026-05-05 14:44 51.50710 0.73098 5351 ft 282 kts 205°
2026-05-05 14:44 51.48942 0.71786 6234 ft 285 kts 205°
2026-05-05 14:44 51.47134 0.70508 7131 ft 285 kts 204°
2026-05-05 14:44 51.45305 0.69272 8003 ft 287 kts 203°
2026-05-05 14:45 51.43449 0.68057 8868 ft 289 kts 202°
2026-05-05 14:45 51.41571 0.66850 9701 ft 293 kts 202°
2026-05-05 14:45 51.39660 0.65632 10343 ft 303 kts 202°
2026-05-05 14:45 51.37629 0.64340 10589 ft 325 kts 202°
2026-05-05 14:46 51.35484 0.62975 11099 ft 336 kts 201°
2026-05-05 14:46 51.33249 0.61792 11778 ft 341 kts 191°
2026-05-05 14:46 51.30876 0.61444 12562 ft 345 kts 176°
2026-05-05 14:46 51.28503 0.62043 13275 ft 347 kts 162°
2026-05-05 14:47 51.26281 0.63543 13976 ft 348 kts 149°
2026-05-05 14:47 51.24182 0.65502 14608 ft 351 kts 148°
2026-05-05 14:47 51.22066 0.67479 15229 ft 354 kts 148°
2026-05-05 14:47 51.19929 0.69470 15841 ft 357 kts 148°
2026-05-05 14:48 51.17772 0.71472 16441 ft 361 kts 148°
2026-05-05 14:48 51.15595 0.73487 17039 ft 364 kts 149°
2026-05-05 14:48 51.13392 0.75525 17622 ft 368 kts 149°
2026-05-05 14:48 51.11167 0.77577 18219 ft 371 kts 149°
2026-05-05 14:49 51.08921 0.79642 18732 ft 374 kts 149°
2026-05-05 14:49 51.06658 0.81717 19236 ft 377 kts 150°
2026-05-05 14:49 51.04291 0.83533 19723 ft 380 kts 161°
2026-05-05 14:49 51.01699 0.84392 20223 ft 383 kts 176°
2026-05-05 14:50 50.99039 0.84162 20716 ft 385 kts 191°
2026-05-05 14:50 50.96493 0.82844 21202 ft 387 kts 206°
2026-05-05 14:50 50.94225 0.80526 21692 ft 389 kts 219°
2026-05-05 14:50 50.92121 0.77810 22179 ft 392 kts 219°
2026-05-05 14:51 50.89994 0.75084 22671 ft 394 kts 219°
2026-05-05 14:51 50.87854 0.72364 23156 ft 396 kts 219°
2026-05-05 14:51 50.85697 0.69628 23602 ft 398 kts 219°
2026-05-05 14:51 50.83531 0.66880 23987 ft 401 kts 219°
2026-05-05 14:52 50.81350 0.64117 24407 ft 402 kts 218°
2026-05-05 14:52 50.79159 0.61347 24807 ft 404 kts 218°
2026-05-05 14:52 50.76963 0.58568 25176 ft 406 kts 218°
2026-05-05 14:52 50.74760 0.55777 25585 ft 407 kts 218°
2026-05-05 14:53 50.72549 0.52975 25977 ft 408 kts 218°
2026-05-05 14:53 50.70333 0.50166 26345 ft 410 kts 218°
2026-05-05 14:53 50.68103 0.47352 26714 ft 411 kts 217°
2026-05-05 14:53 50.65863 0.44534 27105 ft 413 kts 218°
2026-05-05 14:54 50.63614 0.41711 27437 ft 415 kts 217°
2026-05-05 14:54 50.61349 0.38871 27772 ft 417 kts 217°
2026-05-05 14:54 50.59056 0.36058 28137 ft 418 kts 213°
2026-05-05 14:54 50.56552 0.33730 28503 ft 418 kts 204°
2026-05-05 14:55 50.53946 0.31824 28861 ft 419 kts 204°
2026-05-05 14:55 50.51259 0.29870 29231 ft 421 kts 204°
2026-05-05 14:55 50.48597 0.27935 29586 ft 422 kts 204°
2026-05-05 14:55 50.45969 0.26019 29925 ft 423 kts 204°
2026-05-05 14:56 50.43298 0.24063 30204 ft 424 kts 204°
2026-05-05 14:56 50.40616 0.22101 30468 ft 426 kts 203°
2026-05-05 14:56 50.37929 0.20138 30726 ft 427 kts 203°
2026-05-05 14:56 50.35224 0.18172 30978 ft 429 kts 203°
2026-05-05 14:57 50.32512 0.16211 31245 ft 430 kts 203°
2026-05-05 14:57 50.29805 0.14259 31594 ft 429 kts 203°
2026-05-05 14:57 50.27097 0.12306 31939 ft 428 kts 204°
2026-05-05 14:57 50.24395 0.10357 32269 ft 427 kts 204°
2026-05-05 14:58 50.21698 0.08413 32601 ft 427 kts 204°
2026-05-05 14:58 50.19003 0.06472 32935 ft 426 kts 203°
2026-05-05 14:58 50.16311 0.04538 33278 ft 426 kts 203°
2026-05-05 14:58 50.13582 0.02774 33607 ft 424 kts 196°
2026-05-05 14:59 50.10720 0.01739 33936 ft 422 kts 187°
2026-05-05 14:59 50.07800 0.01483 34208 ft 420 kts 177°
2026-05-05 14:59 50.04899 0.02013 34442 ft 421 kts 167°
2026-05-05 14:59 50.02062 0.03126 34659 ft 421 kts 166°
2026-05-05 15:00 49.99221 0.04264 34853 ft 422 kts 166°
2026-05-05 15:00 49.97296 0.05028 34907 ft 422 kts 166°
2026-05-05 15:00 49.90774 0.07581 34926 ft 412 kts 166°
2026-05-05 15:01 49.85230 0.09746 34920 ft 410 kts 166°
2026-05-05 15:01 49.79678 0.11905 34919 ft 412 kts 166°
2026-05-05 15:02 49.74118 0.14066 34925 ft 413 kts 165°
2026-05-05 15:02 49.68555 0.16229 34930 ft 412 kts 165°
2026-05-05 15:03 49.63012 0.18426 34933 ft 411 kts 165°
2026-05-05 15:03 49.57488 0.20677 34928 ft 411 kts 165°
2026-05-05 15:04 49.51962 0.22919 34927 ft 411 kts 165°
2026-05-05 15:04 49.46431 0.25137 34892 ft 411 kts 164°
2026-05-05 15:05 49.38128 0.28453 34886 ft 411 kts 164°
2026-05-05 15:06 49.32589 0.30657 34885 ft 411 kts 164°
2026-05-05 15:06 49.27057 0.32908 34889 ft 411 kts 163°
2026-05-05 15:07 49.21543 0.35264 34883 ft 411 kts 163°
2026-05-05 15:07 49.16029 0.37616 34884 ft 412 kts 163°
2026-05-05 15:08 49.10507 0.39935 34882 ft 411 kts 163°
2026-05-05 15:08 49.04979 0.42235 34876 ft 412 kts 163°
2026-05-05 15:09 48.99439 0.44545 34869 ft 413 kts 163°
2026-05-05 15:09 48.93929 0.46851 34868 ft 414 kts 163°
2026-05-05 15:10 48.88374 0.49164 34869 ft 414 kts 163°
2026-05-05 15:10 48.82808 0.51468 34872 ft 415 kts 163°
2026-05-05 15:11 48.77240 0.53768 34874 ft 415 kts 164°
2026-05-05 15:11 48.71649 0.55972 34869 ft 415 kts 164°
2026-05-05 15:12 48.66049 0.58131 34870 ft 415 kts 164°
2026-05-05 15:12 48.60451 0.60306 34871 ft 416 kts 164°
2026-05-05 15:13 48.54847 0.62490 34870 ft 416 kts 164°
2026-05-05 15:13 48.49245 0.64686 34863 ft 416 kts 163°
2026-05-05 15:14 48.43660 0.66964 34868 ft 416 kts 163°
2026-05-05 15:14 48.38080 0.69278 34860 ft 416 kts 163°
2026-05-05 15:15 48.32490 0.71554 34859 ft 416 kts 163°
2026-05-05 15:15 48.26898 0.73798 34849 ft 416 kts 163°
2026-05-05 15:16 48.21294 0.76040 34855 ft 417 kts 164°
2026-05-05 15:16 48.15679 0.78245 34851 ft 418 kts 164°
2026-05-05 15:17 48.10054 0.80447 34840 ft 418 kts 164°
2026-05-05 15:17 48.04437 0.82645 34821 ft 416 kts 164°
2026-05-05 15:18 47.98845 0.84829 34804 ft 416 kts 164°
2026-05-05 15:18 47.93243 0.87015 34796 ft 416 kts 164°
2026-05-05 15:19 47.87634 0.89206 34802 ft 417 kts 164°
2026-05-05 15:19 47.82015 0.91384 34805 ft 418 kts 164°
2026-05-05 15:20 47.76387 0.93561 34818 ft 418 kts 165°
2026-05-05 15:20 47.70748 0.95735 34822 ft 419 kts 165°
2026-05-05 15:21 47.66055 0.97545 34823 ft 419 kts 165°
2026-05-05 15:21 47.60406 0.99726 34830 ft 420 kts 165°
2026-05-05 15:22 47.54749 1.01906 34827 ft 420 kts 165°
2026-05-05 15:22 47.49092 1.04075 34839 ft 420 kts 165°
2026-05-05 15:23 47.43407 1.06103 34845 ft 421 kts 172°
2026-05-05 15:23 47.37564 1.06318 34855 ft 421 kts 180°
2026-05-05 15:24 47.31713 1.06166 34854 ft 421 kts 180°
2026-05-05 15:24 47.25864 1.06032 34857 ft 420 kts 180°
2026-05-05 15:25 47.20016 1.05898 34858 ft 420 kts 180°
2026-05-05 15:25 47.14169 1.05764 34857 ft 420 kts 180°
2026-05-05 15:26 47.08322 1.05636 34859 ft 420 kts 180°
2026-05-05 15:26 47.02475 1.05511 34858 ft 420 kts 180°
2026-05-05 15:27 46.96665 1.05300 34865 ft 420 kts 181°
2026-05-05 15:27 46.90819 1.05014 34860 ft 420 kts 181°
2026-05-05 15:28 46.84974 1.04731 34860 ft 420 kts 181°
2026-05-05 15:28 46.79137 1.04481 34860 ft 420 kts 181°
2026-05-05 15:29 46.73295 1.04248 34856 ft 420 kts 181°
2026-05-05 15:29 46.67460 1.04005 34861 ft 419 kts 181°
2026-05-05 15:30 46.61623 1.03758 34863 ft 420 kts 181°
2026-05-05 15:30 46.55791 1.03514 34872 ft 419 kts 181°
2026-05-05 15:31 46.49978 1.03879 34866 ft 419 kts 169°
2026-05-05 15:31 46.44293 1.05773 34865 ft 419 kts 167°
2026-05-05 15:32 46.38613 1.07684 34866 ft 419 kts 167°
2026-05-05 15:32 46.32932 1.09588 34865 ft 419 kts 167°
2026-05-05 15:33 46.27242 1.11474 34867 ft 419 kts 168°
2026-05-05 15:33 46.21554 1.13356 34882 ft 420 kts 168°
2026-05-05 15:34 46.15865 1.15242 34894 ft 420 kts 168°
2026-05-05 15:34 46.10171 1.17135 34899 ft 420 kts 168°
2026-05-05 15:35 46.04475 1.19016 34891 ft 420 kts 168°
2026-05-05 15:35 45.98773 1.20892 34900 ft 420 kts 168°
2026-05-05 15:36 45.93073 1.22762 34904 ft 421 kts 168°
2026-05-05 15:36 45.87360 1.24631 34909 ft 421 kts 168°
2026-05-05 15:37 45.81641 1.26498 34909 ft 422 kts 168°
2026-05-05 15:37 45.75922 1.28367 34911 ft 421 kts 169°
2026-05-05 15:38 45.70205 1.30236 34921 ft 421 kts 169°
2026-05-05 15:38 45.64488 1.32095 34925 ft 421 kts 169°
2026-05-05 15:39 45.58775 1.33946 34926 ft 421 kts 169°
2026-05-05 15:39 45.53057 1.35795 34918 ft 422 kts 169°
2026-05-05 15:40 45.47372 1.37629 34921 ft 422 kts 169°
2026-05-05 15:40 45.41604 1.39491 34919 ft 422 kts 169°
2026-05-05 15:41 45.35906 1.41324 34925 ft 423 kts 170°
2026-05-05 15:41 45.30168 1.43166 34930 ft 423 kts 170°
2026-05-05 15:42 45.24431 1.45008 34928 ft 422 kts 170°
2026-05-05 15:42 45.18697 1.46847 34924 ft 422 kts 170°
2026-05-05 15:43 45.12969 1.48679 34921 ft 421 kts 170°
2026-05-05 15:43 45.07253 1.50505 34927 ft 421 kts 170°
2026-05-05 15:44 45.01540 1.52312 34923 ft 420 kts 170°
2026-05-05 15:44 44.95837 1.54123 34927 ft 420 kts 171°
2026-05-05 15:45 44.90145 1.55929 34939 ft 419 kts 171°
2026-05-05 15:45 44.84460 1.57720 34939 ft 418 kts 171°
2026-05-05 15:46 44.78779 1.59509 34934 ft 418 kts 171°
2026-05-05 15:46 44.73104 1.61295 34929 ft 418 kts 171°
2026-05-05 15:47 44.67432 1.63076 34932 ft 418 kts 171°
2026-05-05 15:47 44.61757 1.64848 34932 ft 418 kts 171°
2026-05-05 15:48 44.56088 1.66628 34929 ft 417 kts 171°
2026-05-05 15:48 44.50423 1.68400 34933 ft 417 kts 171°
2026-05-05 15:49 44.44762 1.70163 34935 ft 416 kts 171°
2026-05-05 15:49 44.39110 1.71922 34927 ft 416 kts 171°
2026-05-05 15:50 44.33466 1.73668 34932 ft 415 kts 171°
2026-05-05 15:50 44.27829 1.75362 34936 ft 414 kts 173°
2026-05-05 15:51 44.22162 1.76677 34935 ft 412 kts 175°
2026-05-05 15:51 44.16485 1.77814 34925 ft 412 kts 175°
2026-05-05 15:52 44.10817 1.78998 34927 ft 412 kts 175°
2026-05-05 15:52 44.05191 1.80240 34931 ft 412 kts 175°
2026-05-05 15:53 43.99533 1.81503 34922 ft 412 kts 175°
2026-05-05 15:53 43.93874 1.82688 34932 ft 410 kts 178°
2026-05-05 15:54 43.88206 1.83324 34937 ft 408 kts 181°
2026-05-05 15:54 43.82546 1.83721 34937 ft 407 kts 181°
2026-05-05 15:55 43.76894 1.84183 34933 ft 407 kts 180°
2026-05-05 15:55 43.71248 1.84739 34939 ft 407 kts 180°
2026-05-05 15:56 43.65602 1.85312 34945 ft 406 kts 180°
2026-05-05 15:56 43.59967 1.85858 34933 ft 406 kts 181°
2026-05-05 15:57 43.54336 1.86395 34939 ft 405 kts 181°
2026-05-05 15:57 43.48716 1.86935 34934 ft 405 kts 181°
2026-05-05 15:58 43.43102 1.87480 34931 ft 404 kts 181°
2026-05-05 15:58 43.37493 1.88010 34915 ft 404 kts 181°
2026-05-05 15:59 43.31891 1.88538 34935 ft 403 kts 181°
2026-05-05 15:59 43.26293 1.89081 34923 ft 403 kts 181°
2026-05-05 16:00 43.20695 1.89616 34920 ft 403 kts 181°
2026-05-05 16:00 43.15099 1.90152 34933 ft 403 kts 181°
2026-05-05 16:01 43.09553 1.90683 34949 ft 402 kts 182°
2026-05-05 16:01 43.03979 1.91213 34943 ft 400 kts 182°
2026-05-05 16:02 42.98451 1.91734 34942 ft 393 kts 182°
2026-05-05 16:02 42.93065 1.92249 34941 ft 385 kts 183°
2026-05-05 16:03 42.87723 1.92755 34942 ft 385 kts 183°
2026-05-05 16:03 42.82383 1.93254 34931 ft 384 kts 183°
2026-05-05 16:04 42.77049 1.93756 34934 ft 384 kts 183°
2026-05-05 16:04 42.71707 1.94256 34939 ft 385 kts 182°
2026-05-05 16:05 42.66372 1.95009 34924 ft 392 kts 174°
2026-05-05 16:05 42.61079 1.96909 34922 ft 393 kts 173°
2026-05-05 16:06 42.55789 1.98818 34898 ft 394 kts 173°
2026-05-05 16:06 42.50493 2.00725 34902 ft 394 kts 173°
2026-05-05 16:07 42.45195 2.02627 34908 ft 394 kts 173°
2026-05-05 16:07 42.39899 2.04516 34902 ft 393 kts 173°
2026-05-05 16:08 42.35498 2.06081 34882 ft 393 kts 174°
2026-05-05 16:08 42.30209 2.07974 34870 ft 393 kts 174°
2026-05-05 16:09 42.24920 2.09860 34877 ft 394 kts 174°
2026-05-05 16:09 42.19626 2.11736 34877 ft 394 kts 174°
2026-05-05 16:10 42.14324 2.13604 34864 ft 393 kts 174°
2026-05-05 16:10 42.09031 2.15475 34874 ft 393 kts 174°
2026-05-05 16:11 42.03739 2.17342 34878 ft 393 kts 174°
2026-05-05 16:12 41.93155 2.21053 34865 ft 393 kts 174°
2026-05-05 16:13 41.79912 2.25704 34893 ft 394 kts 174°
2026-05-05 16:13 41.74612 2.27542 34879 ft 394 kts 174°
2026-05-05 16:14 41.64058 2.31241 34900 ft 393 kts 175°
2026-05-05 16:15 41.53488 2.34907 34874 ft 392 kts 175°
2026-05-05 16:16 41.42927 2.38569 34894 ft 392 kts 175°
2026-05-05 16:17 41.35007 2.41301 34900 ft 392 kts 175°
2026-05-05 16:18 41.27093 2.44035 34872 ft 392 kts 175°
2026-05-05 16:18 41.21822 2.45856 34606 ft 389 kts 176°
2026-05-05 16:19 41.19217 2.46754 34363 ft 384 kts 176°
2026-05-05 16:19 41.16642 2.47637 34123 ft 380 kts 176°
2026-05-05 16:19 41.11565 2.49370 33610 ft 373 kts 177°
2026-05-05 16:20 41.06598 2.51071 32879 ft 364 kts 177°
2026-05-05 16:20 41.01701 2.52747 31750 ft 362 kts 177°
2026-05-05 16:21 40.96859 2.54406 30769 ft 357 kts 177°
2026-05-05 16:22 40.89712 2.56844 29254 ft 350 kts 178°
2026-05-05 16:22 40.85021 2.58433 28073 ft 347 kts 177°
2026-05-05 16:23 40.80365 2.60010 27052 ft 343 kts 176°
2026-05-05 16:23 40.78061 2.60788 26570 ft 341 kts 176°
2026-05-05 16:23 40.73488 2.62336 25637 ft 337 kts 176°
2026-05-05 16:24 40.71220 2.63105 25181 ft 336 kts 176°
2026-05-05 16:24 40.68963 2.63871 24726 ft 334 kts 176°
2026-05-05 16:24 40.64481 2.65381 23849 ft 331 kts 176°
2026-05-05 16:25 40.62255 2.66130 23398 ft 329 kts 176°
2026-05-05 16:25 40.57834 2.67610 22400 ft 327 kts 175°
2026-05-05 16:25 40.55636 2.68346 21925 ft 326 kts 175°
2026-05-05 16:26 40.51266 2.69820 21034 ft 323 kts 173°
2026-05-05 16:26 40.47137 2.72328 20195 ft 333 kts 159°
2026-05-05 16:27 40.45118 2.73808 19791 ft 331 kts 159°
2026-05-05 16:27 40.43110 2.75273 19380 ft 330 kts 159°
2026-05-05 16:27 40.41105 2.76726 18992 ft 328 kts 159°
2026-05-05 16:27 40.39107 2.78170 18624 ft 327 kts 159°
2026-05-05 16:28 40.37118 2.79605 18254 ft 326 kts 159°
2026-05-05 16:28 40.35135 2.81033 17857 ft 324 kts 159°
2026-05-05 16:28 40.33166 2.82451 17470 ft 322 kts 159°
2026-05-05 16:28 40.31211 2.83865 17101 ft 320 kts 159°
2026-05-05 16:29 40.29264 2.85274 16738 ft 318 kts 158°
2026-05-05 16:29 40.27333 2.86671 16382 ft 316 kts 158°
2026-05-05 16:29 40.25413 2.88056 16042 ft 314 kts 158°
2026-05-05 16:29 40.23505 2.89431 15709 ft 312 kts 158°
2026-05-05 16:30 40.21609 2.90798 15375 ft 310 kts 158°
2026-05-05 16:30 40.19722 2.92151 15034 ft 309 kts 158°
2026-05-05 16:30 40.17841 2.93495 14707 ft 307 kts 158°
2026-05-05 16:30 40.15970 2.94834 14390 ft 306 kts 158°
2026-05-05 16:31 40.14111 2.96169 14081 ft 304 kts 158°
2026-05-05 16:31 40.12261 2.97499 13778 ft 302 kts 157°
2026-05-05 16:31 40.10423 2.98821 13437 ft 301 kts 157°
2026-05-05 16:31 40.08596 3.00133 13085 ft 299 kts 157°
2026-05-05 16:32 40.06778 3.01436 12732 ft 297 kts 157°
2026-05-05 16:32 40.04970 3.02731 12403 ft 296 kts 157°
2026-05-05 16:32 40.03169 3.04019 12062 ft 294 kts 156°
2026-05-05 16:32 40.01381 3.05295 11717 ft 292 kts 156°
2026-05-05 16:33 39.99600 3.06564 11359 ft 291 kts 156°
2026-05-05 16:33 39.97824 3.07831 10986 ft 291 kts 156°
2026-05-05 16:33 39.96053 3.09095 10612 ft 290 kts 156°
2026-05-05 16:33 39.94291 3.10328 10423 ft 282 kts 160°
2026-05-05 16:34 39.92479 3.11077 10301 ft 267 kts 175°
2026-05-05 16:34 39.90676 3.11205 10177 ft 253 kts 188°
2026-05-05 16:34 39.88960 3.10986 9854 ft 245 kts 189°
2026-05-05 16:34 39.87275 3.10775 9442 ft 242 kts 189°
2026-05-05 16:35 39.85606 3.10568 8979 ft 240 kts 189°
2026-05-05 16:35 39.83947 3.10363 8509 ft 239 kts 188°
2026-05-05 16:35 39.82303 3.10161 8018 ft 237 kts 188°
2026-05-05 16:35 39.80667 3.09960 7851 ft 237 kts 188°
2026-05-05 16:36 39.79033 3.09757 7520 ft 236 kts 189°
2026-05-05 16:36 39.77403 3.09553 7177 ft 235 kts 188°
2026-05-05 16:36 39.75799 3.09356 6846 ft 234 kts 189°
2026-05-05 16:36 39.74160 3.09154 6469 ft 233 kts 189°
2026-05-05 16:37 39.72574 3.08951 5948 ft 231 kts 192°
2026-05-05 16:37 39.71089 3.08283 5384 ft 225 kts 215°
2026-05-05 16:37 39.69982 3.06891 4828 ft 222 kts 239°
2026-05-05 16:37 39.69177 3.05174 4255 ft 222 kts 240°
2026-05-05 16:38 39.68375 3.03464 3714 ft 222 kts 240°
2026-05-05 16:38 39.67578 3.01763 3244 ft 219 kts 240°
2026-05-05 16:38 39.66811 3.00128 3085 ft 204 kts 239°
2026-05-05 16:38 39.66097 2.98606 3008 ft 191 kts 239°
2026-05-05 16:39 39.65424 2.97171 2989 ft 184 kts 239°
2026-05-05 16:39 39.64767 2.95770 2987 ft 181 kts 239°
2026-05-05 16:39 39.64106 2.94361 2983 ft 184 kts 239°
2026-05-05 16:39 39.63445 2.92955 2893 ft 179 kts 239°
2026-05-05 16:40 39.62811 2.91605 2707 ft 172 kts 239°
2026-05-05 16:40 39.62200 2.90306 2501 ft 167 kts 240°
2026-05-05 16:40 39.61599 2.89026 2283 ft 166 kts 239°
2026-05-05 16:40 39.61004 2.87761 2073 ft 163 kts 238°
2026-05-05 16:41 39.60422 2.86524 1873 ft 157 kts 239°
2026-05-05 16:41 39.59860 2.85331 1645 ft 154 kts 238°
2026-05-05 16:41 39.59336 2.84216 1451 ft 137 kts 240°
2026-05-05 16:41 39.58845 2.83176 1272 ft 134 kts 236°
2026-05-05 16:42 39.58358 2.82143 1098 ft 134 kts 238°
2026-05-05 16:42 39.57865 2.81098 938 ft 135 kts 237°
2026-05-05 16:42 39.57376 2.80060 756 ft 134 kts 238°
2026-05-05 16:42 39.56900 2.79046 585 ft 133 kts 239°
2026-05-05 16:43 39.56425 2.78028 373 ft 131 kts 238°
2026-05-05 16:43 39.55943 2.77011 210 ft 132 kts 238°
2026-05-05 16:43 39.55471 2.76014 51 ft 129 kts 238°
2026-05-05 16:43 39.55070 2.75164 38 ft 87 kts 238°
2026-05-05 16:44 39.54876 2.74754 38 ft 34 kts 239°
2026-05-05 16:44 39.54815 2.74525 38 ft 20 kts 261°
2026-05-05 16:44 39.54804 2.74353 38 ft 18 kts 268°
2026-05-05 16:44 39.54802 2.74229 38 ft 10 kts 269°
2026-05-05 16:45 39.54808 2.74173 36 ft 1 kts 287°
2026-05-05 16:45 39.54813 2.74156 38 ft 6 kts 294°
2026-05-05 16:45 39.54859 2.74100 38 ft 13 kts 328°
2026-05-05 16:45 39.54938 2.74038 38 ft 13 kts 328°
2026-05-05 16:46 39.55017 2.73976 38 ft 13 kts 329°
2026-05-05 16:46 39.55094 2.73916 38 ft 12 kts 329°
2026-05-05 16:46 39.55165 2.73860 38 ft 11 kts 329°
2026-05-05 16:46 39.55227 2.73811 38 ft 10 kts 328°
2026-05-05 16:47 39.55285 2.73764 36 ft 12 kts 328°
2026-05-05 16:47 39.55377 2.73692 38 ft 17 kts 328°
2026-05-05 16:47 39.55481 2.73609 38 ft 18 kts 328°
2026-05-05 16:47 39.55580 2.73532 38 ft 14 kts 329°
2026-05-05 16:48 39.55628 2.73447 38 ft 13 kts 258°
2026-05-05 16:48 39.55580 2.73343 38 ft 14 kts 238°
2026-05-05 16:48 39.55527 2.73231 38 ft 15 kts 239°
2026-05-05 16:48 39.55474 2.73115 37 ft 15 kts 239°
2026-05-05 16:49 39.55416 2.72995 38 ft 15 kts 225°
2026-05-05 16:49 39.55330 2.73006 37 ft 14 kts 149°
2026-05-05 16:49 39.55245 2.73024 37 ft 14 kts 221°
2026-05-05 16:49 39.55192 2.72916 38 ft 15 kts 239°
2026-05-05 16:50 39.55138 2.72801 38 ft 13 kts 239°
2026-05-05 16:50 39.55080 2.72775 38 ft 7 kts 149°
2026-05-05 16:50 39.55055 2.72797 38 ft 1 kts 145°
2026-05-05 16:50 39.55051 2.72801 38 ft 1 kts 145°